| Date | Temp High/Low | Dew Pt High/Low | Humidity | Wind | Max Wind | Wind Gust | Pressure | Precip. | Condition |
|---|---|---|---|---|---|---|---|---|---|
| 7/31/2025 | 86 °F / 68 °F | 70 °F / 61 °F | 71 % | 16 mph | - | 29.64 in | 0 in | ||
| 7/30/2025 | 84 °F / 66 °F | 68 °F / 59 °F | 70 % | 16 mph | - | 29.66 in | 0 in | ||
| 7/29/2025 | 77 °F / 70 °F | 68 °F / 64 °F | 80 % | 22 mph | - | 29.55 in | 0 in | ||
| 7/28/2025 | 79 °F / 64 °F | 68 °F / 63 °F | 76 % | 15 mph | - | 29.6 in | 0 in | ||
| 7/27/2025 | 81 °F / 61 °F | 66 °F / 57 °F | 74 % | 13 mph | - | 29.64 in | 0 in | ||
| 7/26/2025 | 82 °F / 57 °F | 66 °F / 57 °F | 71 % | 12 mph | - | 29.64 in | 0 in | ||
| 7/25/2025 | 84 °F / 55 °F | 63 °F / 54 °F | 63 % | 9 mph | - | 29.66 in | 0 in | ||
| 7/24/2025 | 84 °F / 61 °F | 63 °F / 55 °F | 66 % | 9 mph | - | 29.64 in | 0 in | ||
| 7/23/2025 | 81 °F / 61 °F | 64 °F / 57 °F | 72 % | 10 mph | - | 29.59 in | 0 in | ||
| 7/22/2025 | 81 °F / 63 °F | 68 °F / 57 °F | 79 % | 24 mph | - | 29.62 in | 0 in | ||
| 7/21/2025 | 79 °F / 59 °F | 68 °F / 55 °F | 72 % | 14 mph | - | 29.65 in | 0 in | ||
| 7/20/2025 | 81 °F / 54 °F | 61 °F / 52 °F | 62 % | 12 mph | - | 29.68 in | 0 in | ||
| 7/19/2025 | 77 °F / 55 °F | 61 °F / 50 °F | 63 % | 13 mph | - | 29.76 in | 0 in | ||
| 7/18/2025 | 77 °F / 57 °F | 59 °F / 43 °F | 57 % | 15 mph | - | 29.82 in | 0 in | ||
| 7/17/2025 | 84 °F / 54 °F | 63 °F / 52 °F | 63 % | 9 mph | - | 29.69 in | 0 in | ||
| 7/16/2025 | 82 °F / 59 °F | 64 °F / 46 °F | 65 % | 12 mph | - | 29.6 in | 0 in | ||
| 7/15/2025 | 84 °F / 61 °F | 66 °F / 57 °F | 76 % | 13 mph | - | 29.68 in | 0 in | ||
| 7/14/2025 | 82 °F / 61 °F | 66 °F / 59 °F | 75 % | 16 mph | - | 29.81 in | 0 in | ||
| 7/13/2025 | 81 °F / 64 °F | 68 °F / 61 °F | 78 % | 13 mph | - | 29.88 in | 0 in | ||
| 7/12/2025 | 82 °F / 64 °F | 68 °F / 59 °F | 77 % | 15 mph | - | 29.82 in | 0 in | ||
| 7/11/2025 | 70 °F / 59 °F | 61 °F / 52 °F | 78 % | 17 mph | - | 29.78 in | 0 in | ||
| 7/10/2025 | 70 °F / 52 °F | 55 °F / 48 °F | 73 % | 15 mph | - | 29.81 in | 0 in | ||
| 7/9/2025 | 70 °F / 46 °F | 50 °F / 45 °F | 67 % | 16 mph | - | 29.7 in | 0 in | ||
| 7/8/2025 | 63 °F / 52 °F | 59 °F / 50 °F | 90 % | 15 mph | - | 29.35 in | 0 in | ||
| 7/7/2025 | 70 °F / 57 °F | 59 °F / 55 °F | 88 % | 13 mph | - | 29.41 in | 0 in | ||
| 7/6/2025 | 61 °F / 54 °F | 59 °F / 52 °F | 95 % | 14 mph | - | 29.42 in | 0 in | ||
| 7/5/2025 | 64 °F / 41 °F | 54 °F / 39 °F | 79 % | 15 mph | - | 29.64 in | 0 in | ||
| 7/4/2025 | 64 °F / 52 °F | 52 °F / 39 °F | 61 % | 26 mph | - | 29.56 in | 0 in | ||
| 7/3/2025 | 72 °F / 59 °F | 61 °F / 48 °F | 71 % | 21 mph | - | 29.55 in | 0 in | ||
| 7/2/2025 | 79 °F / 52 °F | 63 °F / 48 °F | 60 % | 16 mph | - | 29.69 in | 0 in | ||
| 7/1/2025 | 75 °F / 54 °F | 52 °F / 46 °F | 59 % | 20 mph | - | 29.68 in | 0 in |